sat.trackr.live / text

‹ back to catalog

BIOMASS

NORAD 63772 · 2025-090A

PAYLOAD ACTIVE UNKNOWN

§ Identity

Operator
Country
ESA
Launch date
2025-04-29
Launch site
FRGUI
Launch vehicle
Mass (kg)
RCS (m²)

Purposes: earth_obs

External: N2YO · Heavens-Above · Gunter

§ Orbital elements

Epoch: 2026-09-18T23:51:35.475840Z

Period
98.12 min
Inclination
98.0730°
Eccentricity
0.0001429
Mean motion
14.67534080 rev/d
Perigee alt
667.9 km
Apogee alt
670.0 km
Semi-major
7,047.1 km
B*
1.4341e-4
RAAN
87.9638°
Arg perigee
95.8606°
Mean anomaly
264.2761°
Rev number
7,444

§ Raw data

BIOMASS1 63772U 25090A   26261.99416060  .00000765  00000+0  14341-3 0  99962 63772  98.0730  87.9638 0001429  95.8606 264.2761 14.67534080 74440

JSON: /api/v1/satellites/63772 · /tle

For live sub-satellite position, see the globe view (requires WebGL).

§ Visibility from observer

Set your observer location to see the next 7 days of passes ≥ 10°. The values pass through the URL so the page stays shareable.

No JS? Fill the form by hand. The geolocation button needs JavaScript.